North Bend, OR

6:12 PM PDT on July 23, 2017 (GMT -0700)
North Bend Municipal

Weather History for KOTH - October, 2014

Change the Weather History Date:

Sunday, October 19, 2014

  Actual Average Record
Temperature  
Mean Temperature 65 °F 53 °F  
Max Temperature 72 °F 61 °F 85 °F (1913)
Min Temperature 57 °F 46 °F 32 °F (1949)
Degree Days  
Heating Degree Days 0 12  
Month to date heating degree days 81 206  
Since 1 July heating degree days 449 814  
Cooling Degree Days 0 0  
Month to date cooling degree days 6 0  
Year to date cooling degree days 28 2  
Growing Degree Days 14 (Base 50)    
Moisture  
Dew Point 58 °F    
Average Humidity 84    
Maximum Humidity 100    
Minimum Humidity 57    
Precipitation  
Precipitation 0.08 in 0.17 in 1.14 in (1946)
Month to date precipitation 2.12 2.26  
Year to date precipitation 26.40 41.08  
Sea Level Pressure  
Sea Level Pressure 29.79 in    
Wind  
Wind Speed 9 mph (South)    
Max Wind Speed 20 mph    
Max Gust Speed 31 mph    
Visibility 10 miles    
Events      
T = Trace of Precipitation, MM = Missing Value Source: NWS Daily Summary

Daily Weather History Graph

Daily Weather History Graph

Search for Another Location

Airport or City:

Trip Planner

Search our weather history database for the weather conditions in past years. The results will help you decide how hot, cold, wet, or windy it might be!

Date:

Astronomy

Oct. 19, 2014 Rise Set
Actual Time 7:35 AM PDT 6:27 PM PDT
Civil Twilight 7:07 AM PDT 6:56 PM PDT
Nautical Twilight 6:33 AM PDT 7:29 PM PDT
Astronomical Twilight 6:00 AM PDT 8:02 PM PDT
Moon 3:27 AM PDT (10/19) 4:27 PM PDT (10/19)
Length of Visible Light 11h 49m
Length of Day
10h 51m
Waning Crescent, 16% of the Moon is Illuminated
Oct 19
Waning Crescent
Oct 23
New
Oct 30
First Quarter
Nov 6
Full
Nov 14
Last Quarter

Hourly Weather History & Observations

Time (PDT) Temp. Dew Point Humidity Pressure Visibility Wind Dir Wind Speed Gust Speed Precip Events Conditions
12:15 AM 60.8 °F 60.8 °F 100% 29.83 in 10.0 mi Calm Calm - N/A   Mostly Cloudy
12:35 AM 60.8 °F 60.8 °F 100% 29.83 in 10.0 mi Calm Calm - N/A   Overcast
12:55 AM 59.0 °F 59.0 °F 100% 29.83 in 10.0 mi SE 4.6 mph - N/A   Overcast
1:15 AM 59.0 °F 59.0 °F 100% 29.83 in 10.0 mi South 3.5 mph - N/A   Overcast
1:35 AM 60.8 °F 60.8 °F 100% 29.83 in 10.0 mi SW 4.6 mph - N/A   Overcast
1:55 AM 60.8 °F 60.8 °F 100% 29.84 in 10.0 mi WSW 4.6 mph - N/A   Overcast
2:15 AM 60.8 °F 60.8 °F 100% 29.84 in 10.0 mi South 3.5 mph - N/A   Overcast
2:35 AM 60.8 °F 60.8 °F 100% 29.84 in 10.0 mi South 5.8 mph - N/A   Overcast
2:55 AM 60.8 °F 60.8 °F 100% 29.83 in 10.0 mi South 6.9 mph - N/A   Overcast
3:15 AM 60.8 °F 60.8 °F 100% 29.82 in 10.0 mi SSE 4.6 mph - N/A   Overcast
3:35 AM 60.8 °F 60.8 °F 100% 29.82 in 10.0 mi SE 3.5 mph - N/A   Overcast
3:55 AM 60.8 °F 60.8 °F 100% 29.81 in 10.0 mi SE 5.8 mph - N/A   Overcast
4:15 AM 60.8 °F 60.8 °F 100% 29.80 in 10.0 mi SSE 4.6 mph - N/A   Overcast
4:35 AM 60.8 °F 60.8 °F 100% 29.80 in 10.0 mi SSE 4.6 mph - N/A   Overcast
4:55 AM 60.8 °F 60.8 °F 100% 29.80 in 10.0 mi South 3.5 mph - N/A   Overcast
5:15 AM 60.8 °F 60.8 °F 100% 29.79 in 10.0 mi SE 5.8 mph - N/A   Overcast
5:35 AM 60.8 °F 60.8 °F 100% 29.80 in 10.0 mi SSE 3.5 mph - N/A   Overcast
5:55 AM 59.0 °F 59.0 °F 100% 29.79 in 10.0 mi SSE 4.6 mph - N/A   Overcast
6:15 AM 57.2 °F 57.2 °F 100% 29.79 in 10.0 mi South 5.8 mph - N/A   Scattered Clouds
6:35 AM 57.2 °F 57.2 °F 100% 29.79 in 10.0 mi South 3.5 mph - N/A   Partly Cloudy
6:55 AM 57.2 °F 57.2 °F 100% 29.79 in 10.0 mi South 3.5 mph - N/A   Scattered Clouds
7:15 AM 57.2 °F 57.2 °F 100% 29.79 in 10.0 mi South 3.5 mph - N/A   Mostly Cloudy
7:35 AM 59.0 °F 59.0 °F 100% 29.79 in 10.0 mi Calm Calm - N/A   Overcast
7:55 AM 59.0 °F 59.0 °F 100% 29.80 in 10.0 mi ESE 4.6 mph - N/A   Overcast
8:15 AM 59.0 °F 59.0 °F 100% 29.80 in 10.0 mi ESE 3.5 mph - N/A   Overcast
8:35 AM 59.0 °F 59.0 °F 100% 29.80 in 10.0 mi SE 5.8 mph - N/A   Overcast
8:55 AM 60.8 °F 60.8 °F 100% 29.80 in 10.0 mi SE 6.9 mph - N/A   Overcast
9:15 AM 60.8 °F 60.8 °F 100% 29.81 in 10.0 mi SE 6.9 mph - N/A   Overcast
9:35 AM 62.6 °F 62.6 °F 100% 29.81 in 10.0 mi SE 6.9 mph - N/A   Mostly Cloudy
9:55 AM 64.4 °F 60.8 °F 88% 29.81 in 10.0 mi SSE 5.8 mph - N/A   Overcast
10:15 AM 64.4 °F 60.8 °F 88% 29.81 in 10.0 mi South 12.7 mph 20.7 mph N/A   Overcast
10:35 AM 64.4 °F 60.8 °F 88% 29.81 in 10.0 mi South 10.4 mph - N/A   Overcast
10:55 AM 66.2 °F 60.8 °F 83% 29.81 in 10.0 mi South 11.5 mph 20.7 mph N/A   Overcast
11:15 AM 66.2 °F 60.8 °F 83% 29.80 in 10.0 mi SSW 8.1 mph - N/A   Overcast
11:35 AM 66.2 °F 60.8 °F 83% 29.80 in 10.0 mi SSW 13.8 mph 19.6 mph N/A   Overcast
11:55 AM 68.0 °F 60.8 °F 78% 29.80 in 10.0 mi South 16.1 mph 20.7 mph N/A   Mostly Cloudy
12:15 PM 69.8 °F 59.0 °F 68% 29.80 in 10.0 mi South 11.5 mph 23.0 mph N/A   Scattered Clouds
12:35 PM 69.8 °F 59.0 °F 68% 29.79 in 10.0 mi SSW 12.7 mph 18.4 mph N/A   Clear
12:55 PM 69.8 °F 59.0 °F 68% 29.79 in 10.0 mi SSW 12.7 mph 21.9 mph N/A   Clear
1:15 PM 69.8 °F 59.0 °F 68% 29.78 in 10.0 mi SSW 17.3 mph 24.2 mph N/A   Clear
1:35 PM 71.6 °F 57.2 °F 60% 29.77 in 10.0 mi SSW 18.4 mph 26.5 mph N/A   Clear
1:55 PM 71.6 °F 57.2 °F 60% 29.77 in 10.0 mi SW 13.8 mph 27.6 mph N/A   Clear
2:15 PM 71.6 °F 57.2 °F 60% 29.76 in 10.0 mi SW 18.4 mph 25.3 mph N/A   Clear
2:35 PM 71.6 °F 55.4 °F 57% 29.76 in 10.0 mi SSW 17.3 mph 31.1 mph N/A   Clear
2:55 PM 71.6 °F 55.4 °F 57% 29.75 in 10.0 mi SSW 19.6 mph 31.1 mph N/A   Clear
3:15 PM 71.6 °F 55.4 °F 57% 29.75 in 10.0 mi SSW 15.0 mph 26.5 mph N/A   Clear
3:35 PM 71.6 °F 55.4 °F 57% 29.75 in 10.0 mi SSW 17.3 mph 25.3 mph N/A   Clear
3:55 PM 71.6 °F 55.4 °F 57% 29.75 in 10.0 mi SSW 15.0 mph 21.9 mph N/A   Clear
4:15 PM 69.8 °F 55.4 °F 60% 29.75 in 10.0 mi SSW 10.4 mph 19.6 mph N/A   Clear
4:35 PM 69.8 °F 55.4 °F 60% 29.76 in 10.0 mi SSW 12.7 mph 18.4 mph N/A   Mostly Cloudy
4:55 PM 69.8 °F 55.4 °F 60% 29.76 in 10.0 mi SSW 13.8 mph 21.9 mph N/A   Overcast
5:15 PM 68.0 °F 55.4 °F 64% 29.76 in 10.0 mi South 12.7 mph 20.7 mph N/A   Scattered Clouds
5:35 PM 69.8 °F 55.4 °F 60% 29.75 in 10.0 mi South 11.5 mph 20.7 mph N/A   Scattered Clouds
5:55 PM 68.0 °F 55.4 °F 64% 29.76 in 10.0 mi South 8.1 mph - N/A   Scattered Clouds
6:15 PM 66.2 °F 55.4 °F 68% 29.75 in 10.0 mi SSW 9.2 mph 18.4 mph N/A   Scattered Clouds
6:35 PM 66.2 °F 55.4 °F 68% 29.75 in 10.0 mi SSW 9.2 mph - N/A   Scattered Clouds
6:55 PM 66.2 °F 55.4 °F 68% 29.75 in 10.0 mi SSW 9.2 mph - N/A   Mostly Cloudy
7:15 PM 66.2 °F 55.4 °F 68% 29.75 in 10.0 mi SSW 8.1 mph - N/A   Mostly Cloudy
7:35 PM 66.2 °F 55.4 °F 68% 29.75 in 10.0 mi South 10.4 mph - N/A   Overcast
7:55 PM 66.2 °F 55.4 °F 68% 29.75 in 10.0 mi SSW 10.4 mph - N/A   Overcast
8:15 PM 64.4 °F 55.4 °F 73% 29.76 in 10.0 mi SSW 9.2 mph - N/A   Overcast
8:35 PM 64.4 °F 55.4 °F 73% 29.76 in 10.0 mi SSW 6.9 mph - N/A   Overcast
8:55 PM 64.4 °F 55.4 °F 73% 29.76 in 10.0 mi South 8.1 mph - N/A   Overcast
9:15 PM 64.4 °F 55.4 °F 73% 29.76 in 10.0 mi South 5.8 mph - N/A   Overcast
9:35 PM 64.4 °F 55.4 °F 73% 29.76 in 10.0 mi South 6.9 mph - N/A   Overcast
9:55 PM 64.4 °F 57.2 °F 77% 29.76 in 10.0 mi SSW 10.4 mph 16.1 mph N/A   Overcast
10:15 PM 62.6 °F 60.8 °F 94% 29.76 in 10.0 mi SW 5.8 mph - 0.01 in   Overcast
10:35 PM 60.8 °F 60.8 °F 100% 29.76 in 10.0 mi SW 5.8 mph - 0.02 in   Overcast
10:55 PM 59.0 °F 59.0 °F 100% 29.77 in 7.0 mi West 15.0 mph - 0.02 in   Overcast
11:15 PM 57.2 °F 57.2 °F 100% 29.77 in 5.0 mi WSW 16.1 mph - 0.01 in   Overcast
11:35 PM 57.2 °F 57.2 °F 100% 29.77 in 5.0 mi WSW 9.2 mph - 0.02 in   Mostly Cloudy
11:55 PM 57.2 °F 57.2 °F 100% 29.78 in 3.0 mi WSW 8.1 mph - 0.04 in   Mostly Cloudy